Regional Weather Roundup
Issued by NWS Memphis, TN

Home | Current Version | Previous Version | Text Only | Print | Product List | Glossary On
Versions: 1 2 3 4 5 6 7 8 9 10 11 12 13 14 15 16 17 18 19 20 21 22 23 24 25 26 27 28 29 30 31 32 33 34 35 36 37 38 39 40 41 42 43 44 45 46 47 48 49 50
000
ASUS44 KMEG 251210
RWRMEG
MEMPHIS CWA HOURLY WEATHER ROUNDUP
NATIONAL WEATHER SERVICE MEMPHIS TN
700 AM CDT SAT MAR 25 2017

...WEST TENNESSEE...

CITY           SKY/WX    TMP DP  RH WIND       PRES   REMARKS
MEMPHIS INTL   CLOUDY    61  59  93 SE17G23   29.91F
6HR MIN TEMP:  59; 6HR MAX TEMP:  70; 6HR PCP:  0.35;

NWS MEMPHIS      N/A     60 N/A N/A MISG        N/A
JACKSON        CLOUDY    67  52  58 S18G28    29.97S
6HR MIN TEMP:  67; 6HR MAX TEMP:  69;

SOMERVILLE     CLOUDY    61  59  94 S10G22    29.96R FOG
BOLIVAR        MOCLDY    63  57  82 S12G22    30.00R
SAVANNAH       PTCLDY    66  52  59 S16G24    30.02R
DYERSBURG      LGT RAIN  56  55  97 E9        29.96F
6HR MIN TEMP:  55; 6HR MAX TEMP:  68; 6HR PCP:  1.23;

PARIS          MOCLDY    57  52  82 NE5       30.01F
HUNTINGDON     CLOUDY    66  54  63 SE9       29.98F


...EASTERN ARKANSAS...

CITY           SKY/WX    TMP DP  RH WIND       PRES   REMARKS
JONESBORO      RAIN      57  55  93 SE12      29.88R FOG
6HR MIN TEMP:  56; 6HR MAX TEMP:  70; 6HR PCP:  1.37;

WEST MEMPHIS   CLOUDY    59  59 100 SE14      29.88F
6HR MIN TEMP:  57; 6HR MAX TEMP:  70; 6HR PCP:  1.41;

BATESVILLE     CLOUDY    55  54  94 E9        29.84F
6HR MIN TEMP:  55; 6HR MAX TEMP:  55; 6HR PCP:  0.28;

NEWPORT        CLOUDY    57  55  94 SE13      29.87R
6HR MIN TEMP:  55; 6HR MAX TEMP:  58;

WALNUT RIDGE   CLOUDY    55  52  88 E7        29.89S
6HR MIN TEMP:  55; 6HR MAX TEMP:  57; 6HR PCP:  0.88;

BLYTHEVILLE    LGT RAIN  57  57 100 E21       29.89F
6HR MIN TEMP:  55; 6HR MAX TEMP:  70;

SEARCY         CLOUDY    59  59 100 E9        29.86R
6HR MIN TEMP:  56; 6HR MAX TEMP:  59; 6HR PCP:  0.21;

STUTTGART      CLOUDY    61  52  72 S16       29.88R
6HR MIN TEMP:  59; 6HR MAX TEMP:  63; 6HR PCP:  0.61;

PINE BLUFF     CLOUDY    60  57  89 S14G24    29.87R
6HR MIN TEMP:  59; 6HR MAX TEMP:  62; 6HR PCP:  0.62;

MONTICELLO       N/A    N/A N/A N/A MISG      29.90R
                                      6HR PCP:  0.37;



...NORTH MISSISSIPPI...

CITY           SKY/WX    TMP DP  RH WIND       PRES   REMARKS
TUPELO         MOCLDY    64  57  78 SE18      30.04R
6HR MIN TEMP:  64; 6HR MAX TEMP:  66;

OXFORD         LGT RAIN  57  55  94 SE9G16    30.03R
BATESVILLE     RAIN      59  57  93 SE6       29.98S
6HR MIN TEMP:  59; 6HR MAX TEMP:  69; 6HR PCP:  1.05;

OLIVE BRANCH   LGT RAIN N/A N/A N/A SE12G17   29.93
TUNICA         MOCLDY    59  55  88 SE13      29.91S
CLARKSDALE     MOCLDY    61  61 100 S16       29.92S
GREENWOOD      RAIN      60  59  96 S12       30.01R
6HR MIN TEMP:  59; 6HR MAX TEMP:  70; 6HR PCP:  0.67;

COLUMBUS       MOCLDY    63  57  81 S16       30.06R
6HR MIN TEMP:  63; 6HR MAX TEMP:  66;

STARKVILLE     CLOUDY    63  59  88 S9        30.08R
GOLDEN TRIANGL PTCLDY    63  54  72 S16       30.03R


...SOUTHEAST MISSOURI...

CITY           SKY/WX    TMP DP  RH WIND       PRES   REMARKS
KENNETT        CLOUDY    57  57 100 E15G24    29.88F
MALDEN         CLOUDY    55  54  94 SE18G24   29.91S
WEST PLAINS    CLOUDY    54  52  93 SE12      29.82F
6HR MIN TEMP:  53; 6HR MAX TEMP:  54; 6HR PCP:  0.09;

POPLAR BLUFF   CLOUDY    56  54  93 SE15      29.90R
6HR MIN TEMP:  55; 6HR MAX TEMP:  68; 6HR PCP:  0.88;

CAPE GIRARDEAU LGT RAIN  55  52  89 SE16      29.92F
6HR MIN TEMP:  55; 6HR MAX TEMP:  66; 6HR PCP:  0.18;



...NORTHWEST ALABAMA...

CITY           SKY/WX    TMP DP  RH WIND       PRES   REMARKS
MUSCLE SHOALS  MOCLDY    66  50  56 S17G38    30.08F
6HR MIN TEMP:  64; 6HR MAX TEMP:  66;



...MIDDLE TENNESSEE...

CITY           SKY/WX    TMP DP  RH WIND       PRES   REMARKS
NASHVILLE      CLOUDY    66  52  60 S17G26    30.08S
6HR MIN TEMP:  61; 6HR MAX TEMP:  66;

CLARKSVILLE    CLOUDY    65  53  65 S13       30.04R
6HR MIN TEMP:  65; 6HR MAX TEMP:  67;

COLUMBIA       CLEAR     63  57  82 S15G25    30.07R


...WESTERN KENTUCKY...

CITY           SKY/WX    TMP DP  RH WIND       PRES   REMARKS
PADUCAH        CLOUDY    56  53  90 SE12      29.97F
6HR MIN TEMP:  56; 6HR MAX TEMP:  68; 6HR PCP:  0.22;

FORT CAMPBELL  CLOUDY    66  54  66 S9G20     30.03R
6HR MIN TEMP:  66; 6HR MAX TEMP:  67;



...CENTRAL ARKANSAS...

CITY           SKY/WX    TMP DP  RH WIND       PRES   REMARKS
LITTLE ROCK    CLOUDY    60  59  96 S15       29.83R
6HR MIN TEMP:  57; 6HR MAX TEMP:  60; 6HR PCP:  0.05;



SKY/WX REPORTED AS FAIR MEANS FEW OR NO CLOUDS BELOW
12 THOUSAND FEET.





USA.gov is the U.S. government's official web portal to all federal, state and local government web resources and services.